| time (UTC) | temp C | wind direction | speed KPH | gust KPH | rain 1hr cm | rain 24hr cm | rain mn cm | humidity % | barometer mb |
| 20260505035557 | 15 | 82 | 0.0 | 4.8 | 0.00 | 0.00 | 0.00 | 75 | 1009.7 |
| 20260505035056 | 15 | 104 | 0.0 | 3.2 | 0.00 | 0.00 | 0.00 | 75 | 1009.5 |
| 20260505034611 | 15 | 124 | 0.0 | 4.8 | 0.00 | 0.00 | 0.00 | 74 | 1009.6 |
| 20260505034010 | 15 | 119 | 0.0 | 4.8 | 0.00 | 0.00 | 0.00 | 74 | 1009.4 |
| 20260505033527 | 15 | 92 | 0.0 | 4.8 | 0.00 | 0.00 | 0.00 | 74 | 1009.5 |
| 20260505033043 | 15 | 111 | 0.0 | 6.4 | 0.00 | 0.00 | 0.00 | 74 | 1009.3 |
| 20260505032557 | 15 | 113 | 0.0 | 1.6 | 0.00 | 0.00 | 0.00 | 73 | 1009.3 |
| 20260505032059 | 15 | 112 | 0.0 | 3.2 | 0.00 | 0.00 | 0.00 | 73 | 1009.5 |
| 20260505031605 | 15 | 100 | 0.0 | 3.2 | 0.00 | 0.00 | 0.00 | 73 | 1009.6 |
| 20260505031011 | 15 | 85 | 0.0 | 4.8 | 0.00 | 0.00 | 0.00 | 72 | 1009.6 |
| 20260505030531 | 15 | 119 | 0.0 | 4.8 | 0.00 | 0.00 | 0.00 | 72 | 1009.7 |
| 20260505030048 | 15 | 133 | 0.0 | 3.2 | 0.00 | 0.00 | 0.00 | 72 | 1009.7 |
| 20260505025600 | 15 | 133 | 0.0 | 4.8 | 0.00 | 0.00 | 0.00 | 71 | 1009.7 |
| 20260505025016 | 15 | 102 | 0.0 | 3.2 | 0.00 | 0.00 | 0.00 | 71 | 1009.8 |
| 20260505024529 | 15 | 84 | 0.0 | 3.2 | 0.00 | 0.00 | 0.00 | 71 | 1009.8 |
| 20260505024044 | 15 | 109 | 0.0 | 3.2 | 0.00 | 0.00 | 0.00 | 70 | 1009.8 |
| 20260505023601 | 16 | 117 | 0.0 | 4.8 | 0.00 | 0.00 | 0.00 | 70 | 1009.7 |
| 20260505023103 | 16 | 122 | 0.0 | 6.4 | 0.00 | 0.00 | 0.00 | 69 | 1009.7 |
| 20260505022503 | 16 | 113 | 0.0 | 6.4 | 0.00 | 0.00 | 0.00 | 69 | 1009.7 |
| 20260505022017 | 16 | 85 | 0.0 | 3.2 | 0.00 | 0.00 | 0.00 | 68 | 1009.7 |
| 20260505021532 | 16 | 85 | 0.0 | 4.8 | 0.00 | 0.00 | 0.00 | 68 | 1009.7 |
| 20260505021048 | 16 | 114 | 0.0 | 4.8 | 0.00 | 0.00 | 0.00 | 68 | 1009.7 |
| 20260505020503 | 16 | 86 | 0.0 | 1.6 | 0.00 | 0.00 | 0.00 | 67 | 1009.8 |
| 20260505020018 | 16 | 86 | 0.0 | 1.6 | 0.00 | 0.00 | 0.00 | 67 | 1009.8 |
| 20260505015533 | 16 | 86 | 0.0 | 1.6 | 0.00 | 0.00 | 0.00 | 66 | 1009.8 |
| 20260505015052 | 16 | 86 | 0.0 | 1.6 | 0.00 | 0.00 | 0.00 | 66 | 1009.8 |
| 20260505014505 | 16 | 86 | 0.0 | 4.8 | 0.00 | 0.00 | 0.00 | 65 | 1009.7 |
| 20260505014003 | 16 | 101 | 0.0 | 4.8 | 0.00 | 0.00 | 0.00 | 65 | 1009.7 |
| 20260505013518 | 17 | 88 | 0.0 | 4.8 | 0.00 | 0.00 | 0.00 | 65 | 1009.7 |
| 20260505013039 | 17 | 88 | 0.0 | 9.7 | 0.00 | 0.00 | 0.00 | 64 | 1009.7 |
| 20260505012551 | 17 | 93 | 0.0 | 9.7 | 0.00 | 0.00 | 0.00 | 64 | 1009.7 |
| 20260505012003 | 17 | 88 | 0.0 | 3.2 | 0.00 | 0.00 | 0.00 | 63 | 1009.7 |
| 20260505011520 | 17 | 107 | 0.0 | 4.8 | 0.00 | 0.00 | 0.00 | 62 | 1009.6 |
| 20260505011038 | 17 | 130 | 0.0 | 3.2 | 0.00 | 0.00 | 0.00 | 61 | 1009.6 |
| 20260505010552 | 17 | 91 | 0.0 | 3.2 | 0.00 | 0.00 | 0.00 | 59 | 1009.5 |
| 20260505010108 | 17 | 86 | 0.0 | 4.8 | 0.00 | 0.00 | 0.00 | 58 | 1009.3 |
| 20260505005554 | 17 | 94 | 0.0 | 4.8 | 0.00 | 0.00 | 0.00 | 56 | 1009.3 |
| 20260505005007 | 18 | 108 | 0.0 | 3.2 | 0.00 | 0.00 | 0.00 | 54 | 1009.2 |
| 20260505004545 | 18 | 94 | 0.0 | 3.2 | 0.00 | 0.00 | 0.00 | 51 | 1009.2 |
| 20260505004041 | 18 | 100 | 0.0 | 1.6 | 0.00 | 0.00 | 0.00 | 50 | 1009.2 |
| 20260505003555 | 18 | 100 | 0.0 | 0.0 | 0.00 | 0.00 | 0.00 | 49 | 1009.2 |
| 20260505003100 | 18 | 109 | 0.0 | 0.0 | 0.00 | 0.00 | 0.00 | 49 | 1009.1 |
| 20260505002603 | 18 | 109 | 0.0 | 0.0 | 0.00 | 0.00 | 0.00 | 48 | 1009.0 |
| 20260505002013 | 19 | 115 | 0.0 | 0.0 | 0.00 | 0.00 | 0.00 | 48 | 1008.9 |
| 20260505001535 | 19 | 115 | 0.0 | 1.6 | 0.00 | 0.00 | 0.00 | 47 | 1008.8 |
| 20260505001043 | 19 | 115 | 0.0 | 1.6 | 0.00 | 0.00 | 0.00 | 47 | 1008.8 |
| 20260505000600 | 20 | 115 | 0.0 | 3.2 | 0.00 | 0.00 | 0.00 | 46 | 1008.8 |
| 20260505000016 | 20 | 120 | 0.0 | 3.2 | 0.00 | 0.00 | 0.00 | 46 | 1008.7 |
| 20260504235530 | 20 | 121 | 0.0 | 3.2 | 0.00 | 0.00 | 0.00 | 45 | 1008.7 |
| 20260504235047 | 20 | 121 | 0.0 | 1.6 | 0.00 | 0.00 | 0.00 | 45 | 1008.7 |
| 20260504234549 | 20 | 116 | 0.0 | 1.6 | 0.00 | 0.00 | 0.00 | 45 | 1008.6 |
| 20260504234049 | 21 | 117 | 0.0 | 3.2 | 0.00 | 0.00 | 0.00 | 44 | 1008.6 |
| 20260504233603 | 21 | 117 | 0.0 | 1.6 | 0.00 | 0.00 | 0.00 | 44 | 1008.6 |
| 20260504233021 | 21 | 117 | 0.0 | 1.6 | 0.00 | 0.00 | 0.00 | 42 | 1008.5 |
| 20260504232533 | 21 | 140 | 0.0 | 1.6 | 0.00 | 0.00 | 0.00 | 43 | 1008.5 |
| 20260504232050 | 21 | 166 | 0.0 | 6.4 | 0.00 | 0.00 | 0.00 | 41 | 1008.5 |
| 20260504231503 | 21 | 162 | 0.0 | 9.7 | 0.00 | 0.00 | 0.00 | 41 | 1008.5 |
| 20260504231006 | 21 | 186 | 0.0 | 9.7 | 0.00 | 0.00 | 0.00 | 41 | 1008.4 |
| 20260504230504 | 21 | 187 | 1.6 | 9.7 | 0.00 | 0.00 | 0.00 | 40 | 1008.4 |
| 20260504230020 | 21 | 129 | 0.0 | 11.3 | 0.00 | 0.00 | 0.00 | 41 | 1008.5 |
| 20260504225535 | 21 | 152 | 4.8 | 11.3 | 0.00 | 0.00 | 0.00 | 40 | 1008.6 |
| 20260504225053 | 22 | 202 | 0.0 | 12.9 | 0.00 | 0.00 | 0.00 | 40 | 1008.5 |
| 20260504224551 | 22 | 163 | 4.8 | 24.1 | 0.00 | 0.00 | 0.00 | 40 | 1008.5 |
| 20260504224053 | 22 | 155 | 1.6 | 24.1 | 0.00 | 0.00 | 0.00 | 40 | 1008.4 |
| 20260504223507 | 22 | 150 | 3.2 | 16.1 | 0.00 | 0.00 | 0.00 | 39 | 1008.3 |
| 20260504223021 | 22 | 127 | 1.6 | 6.4 | 0.00 | 0.00 | 0.00 | 39 | 1008.4 |
| 20260504222540 | 22 | 109 | 1.6 | 8.0 | 0.00 | 0.00 | 0.00 | 39 | 1008.3 |
| 20260504222054 | 22 | 150 | 0.0 | 8.0 | 0.00 | 0.00 | 0.00 | 39 | 1008.4 |
| 20260504221506 | 22 | 188 | 1.6 | 8.0 | 0.00 | 0.00 | 0.00 | 38 | 1008.4 |
| 20260504221007 | 22 | 142 | 3.2 | 12.9 | 0.00 | 0.00 | 0.00 | 38 | 1008.5 |
| 20260504220523 | 22 | 215 | 1.6 | 12.9 | 0.00 | 0.00 | 0.00 | 38 | 1008.6 |
| 20260504220037 | 22 | 190 | 3.2 | 11.3 | 0.00 | 0.00 | 0.00 | 38 | 1008.5 |
| 20260504215552 | 22 | 210 | 4.8 | 11.3 | 0.00 | 0.00 | 0.00 | 37 | 1008.6 |
| 20260504215008 | 22 | 198 | 3.2 | 16.1 | 0.00 | 0.00 | 0.00 | 38 | 1008.5 |
| 20260504214519 | 22 | 193 | 4.8 | 16.1 | 0.00 | 0.00 | 0.00 | 38 | 1008.5 |
| 20260504214035 | 22 | 182 | 4.8 | 9.7 | 0.00 | 0.00 | 0.00 | 38 | 1008.4 |
| 20260504213552 | 22 | 152 | 0.0 | 11.3 | 0.00 | 0.00 | 0.00 | 38 | 1008.4 |
| 20260504213016 | 22 | 159 | 1.6 | 17.7 | 0.00 | 0.00 | 0.00 | 38 | 1008.3 |
| 20260504212506 | 22 | 134 | 3.2 | 24.1 | 0.00 | 0.00 | 0.00 | 38 | 1008.4 |
| 20260504212021 | 22 | 132 | 1.6 | 24.1 | 0.00 | 0.00 | 0.00 | 38 | 1008.5 |
| 20260504211537 | 22 | 161 | 3.2 | 12.9 | 0.00 | 0.00 | 0.00 | 37 | 1008.3 |
| 20260504211052 | 22 | 139 | 3.2 | 12.9 | 0.00 | 0.00 | 0.00 | 37 | 1008.4 |
| 20260504210506 | 23 | 165 | 3.2 | 9.7 | 0.00 | 0.00 | 0.00 | 36 | 1008.4 |
| 20260504210019 | 23 | 102 | 0.0 | 11.3 | 0.00 | 0.00 | 0.00 | 37 | 1008.4 |
| 20260504205535 | 22 | 136 | 3.2 | 14.5 | 0.00 | 0.00 | 0.00 | 37 | 1008.4 |
| 20260504205052 | 22 | 149 | 1.6 | 16.1 | 0.00 | 0.00 | 0.00 | 37 | 1008.4 |
| 20260504204508 | 22 | 223 | 4.8 | 16.1 | 0.00 | 0.00 | 0.00 | 36 | 1008.4 |
| 20260504204006 | 22 | 198 | 3.2 | 14.5 | 0.00 | 0.00 | 0.00 | 36 | 1008.4 |
| 20260504203523 | 22 | 221 | 4.8 | 14.5 | 0.00 | 0.00 | 0.00 | 36 | 1008.4 |
| 20260504203038 | 23 | 264 | 3.2 | 8.0 | 0.00 | 0.00 | 0.00 | 36 | 1008.4 |
| 20260504202554 | 23 | 231 | 1.6 | 8.0 | 0.00 | 0.00 | 0.00 | 36 | 1008.6 |
| 20260504202007 | 23 | 182 | 0.0 | 11.3 | 0.00 | 0.00 | 0.00 | 36 | 1008.4 |
| 20260504201526 | 22 | 231 | 1.6 | 11.3 | 0.00 | 0.00 | 0.00 | 36 | 1008.5 |
| 20260504201040 | 22 | 151 | 1.6 | 11.3 | 0.00 | 0.00 | 0.00 | 37 | 1008.4 |
| 20260504200555 | 22 | 124 | 1.6 | 8.0 | 0.00 | 0.00 | 0.00 | 37 | 1008.6 |
| 20260504200056 | 22 | 212 | 1.6 | 19.3 | 0.00 | 0.00 | 0.00 | 36 | 1008.6 |
| 20260504195509 | 22 | 208 | 6.4 | 19.3 | 0.00 | 0.00 | 0.00 | 36 | 1008.7 |
| 20260504195027 | 22 | 114 | 3.2 | 8.0 | 0.00 | 0.00 | 0.00 | 36 | 1008.6 |
| 20260504194549 | 22 | 234 | 1.6 | 8.0 | 0.00 | 0.00 | 0.00 | 36 | 1008.8 |
| 20260504194059 | 22 | 236 | 0.0 | 9.7 | 0.00 | 0.00 | 0.00 | 37 | 1008.8 |
| 20260504193513 | 22 | 130 | 3.2 | 14.5 | 0.00 | 0.00 | 0.00 | 36 | 1008.9 |
| 20260504193028 | 22 | 119 | 4.8 | 16.1 | 0.00 | 0.00 | 0.00 | 37 | 1008.9 |
| 20260504192543 | 22 | 236 | 4.8 | 19.3 | 0.00 | 0.00 | 0.00 | 36 | 1009.1 |
| 20260504192103 | 22 | 188 | 4.8 | 19.3 | 0.00 | 0.00 | 0.00 | 38 | 1009.3 |
| 20260504191623 | 22 | 161 | 0.0 | 9.7 | 0.00 | 0.00 | 0.00 | 39 | 1009.3 |
| 20260504191102 | 22 | 101 | 0.0 | 12.9 | 0.00 | 0.00 | 0.00 | 38 | 1009.3 |
| 20260504190515 | 22 | 140 | 1.6 | 14.5 | 0.00 | 0.00 | 0.00 | 37 | 1009.4 |
| 20260504190030 | 21 | 233 | 6.4 | 14.5 | 0.00 | 0.00 | 0.00 | 38 | 1009.5 |
| 20260504185548 | 22 | 178 | 0.0 | 16.1 | 0.00 | 0.00 | 0.00 | 40 | 1009.4 |
| 20260504185102 | 21 | 172 | 3.2 | 16.1 | 0.00 | 0.00 | 0.00 | 39 | 1009.7 |
| 20260504184503 | 21 | 194 | 4.8 | 16.1 | 0.00 | 0.00 | 0.00 | 37 | 1009.8 |
| 20260504184005 | 21 | 177 | 0.0 | 14.5 | 0.00 | 0.00 | 0.00 | 39 | 1009.8 |
| 20260504183519 | 21 | 196 | 4.8 | 14.5 | 0.00 | 0.00 | 0.00 | 38 | 1010.0 |
| 20260504183035 | 21 | 190 | 1.6 | 11.3 | 0.00 | 0.00 | 0.00 | 39 | 1010.0 |
| 20260504182553 | 21 | 234 | 0.0 | 11.3 | 0.00 | 0.00 | 0.00 | 37 | 1010.1 |
| 20260504182051 | 21 | 152 | 1.6 | 16.1 | 0.00 | 0.00 | 0.00 | 38 | 1010.0 |
| 20260504181552 | 21 | 194 | 3.2 | 29.0 | 0.00 | 0.00 | 0.00 | 38 | 1010.2 |
| 20260504181005 | 21 | 219 | 6.4 | 29.0 | 0.00 | 0.00 | 0.00 | 37 | 1010.3 |
| 20260504180520 | 21 | 200 | 0.0 | 19.3 | 0.00 | 0.00 | 0.00 | 41 | 1010.2 |
| 20260504180037 | 21 | 146 | 3.2 | 19.3 | 0.00 | 0.00 | 0.00 | 39 | 1010.5 |
| 20260504175552 | 21 | 200 | 4.8 | 27.4 | 0.00 | 0.00 | 0.00 | 37 | 1010.4 |
| 20260504175053 | 21 | 235 | 0.0 | 27.4 | 0.00 | 0.00 | 0.00 | 38 | 1010.6 |
| 20260504174551 | 21 | 212 | 3.2 | 19.3 | 0.00 | 0.00 | 0.00 | 41 | 1010.5 |
| 20260504174003 | 21 | 115 | 6.4 | 19.3 | 0.00 | 0.00 | 0.00 | 39 | 1010.8 |
| 20260504173521 | 21 | 179 | 1.6 | 19.3 | 0.00 | 0.00 | 0.00 | 39 | 1010.7 |
| 20260504173038 | 21 | 247 | 3.2 | 19.3 | 0.00 | 0.00 | 0.00 | 39 | 1010.7 |
| 20260504172550 | 20 | 107 | 1.6 | 12.9 | 0.00 | 0.00 | 0.00 | 40 | 1010.7 |
| 20260504172054 | 20 | 180 | 0.0 | 22.5 | 0.00 | 0.00 | 0.00 | 41 | 1010.8 |
| 20260504171553 | 20 | 146 | 6.4 | 24.1 | 0.00 | 0.00 | 0.00 | 39 | 1011.0 |
| 20260504171005 | 20 | 213 | 1.6 | 17.7 | 0.00 | 0.00 | 0.00 | 42 | 1011.1 |
| 20260504170518 | 20 | 177 | 1.6 | 17.7 | 0.00 | 0.00 | 0.00 | 41 | 1011.1 |
| 20260504151031 | 18 | 157 | 3.2 | 17.7 | 0.00 | 0.00 | 0.00 | 51 | 1012.4 |
| 20260504150545 | 18 | 148 | 1.6 | 12.9 | 0.00 | 0.00 | 0.00 | 50 | 1012.4 |
| 20260504141042 | 16 | 159 | 1.6 | 12.9 | 0.00 | 0.00 | 0.00 | 60 | 1012.6 |
| 20260504140553 | 16 | 151 | 1.6 | 14.5 | 0.00 | 0.00 | 0.00 | 60 | 1012.6 |
| 20260504140103 | 16 | 100 | 1.6 | 14.5 | 0.00 | 0.00 | 0.00 | 60 | 1012.7 |
| 20260504130604 | 15 | 154 | 0.0 | 11.3 | 0.00 | 0.00 | 0.00 | 64 | 1013.2 |
| 20260504110544 | 8 | 154 | 0.0 | 0.0 | 0.00 | 0.00 | 0.00 | 82 | 1014.1 |
| 20260504100525 | 8 | 190 | 0.0 | 8.0 | 0.00 | 0.00 | 0.00 | 77 | 1014.1 |
| 20260504081549 | 9 | 153 | 0.0 | 3.2 | 0.00 | 0.00 | 0.00 | 71 | 1013.7 |
| 20260504081005 | 8 | 188 | 0.0 | 0.0 | 0.00 | 0.00 | 0.00 | 71 | 1013.7 |
| 20260504080520 | 8 | 159 | 0.0 | 3.2 | 0.00 | 0.00 | 0.00 | 71 | 1013.8 |
| 20260504050556 | 8 | 167 | 0.0 | 3.2 | 0.00 | 0.00 | 0.00 | 67 | 1013.4 |
| 20260504050113 | 7 | 166 | 0.0 | 3.2 | 0.00 | 0.00 | 0.00 | 67 | 1013.4 |
| 20260504045600 | 7 | 167 | 0.0 | 0.0 | 0.00 | 0.00 | 0.00 | 67 | 1013.4 |
| 20260504045015 | 7 | 167 | 0.0 | 0.0 | 0.00 | 0.00 | 0.00 | 68 | 1013.3 |
| 20260504044535 | 7 | 167 | 0.0 | 0.0 | 0.00 | 0.00 | 0.00 | 68 | 1013.3 |
| 20260504044047 | 7 | 167 | 0.0 | 0.0 | 0.00 | 0.00 | 0.00 | 67 | 1013.2 |
| 20260504043604 | 7 | 167 | 0.0 | 0.0 | 0.00 | 0.00 | 0.00 | 67 | 1013.2 |
| 20260504043016 | 8 | 167 | 0.0 | 0.0 | 0.00 | 0.00 | 0.00 | 65 | 1013.1 |
| 20260504042533 | 8 | 167 | 0.0 | 0.0 | 0.00 | 0.00 | 0.00 | 64 | 1013.0 |
| 20260504042049 | 8 | 167 | 0.0 | 0.0 | 0.00 | 0.00 | 0.00 | 64 | 1013.0 |
| 20260504041553 | 8 | 167 | 0.0 | 0.0 | 0.00 | 0.00 | 0.00 | 64 | 1013.0 |
| 20260504041100 | 8 | 167 | 0.0 | 0.0 | 0.00 | 0.00 | 0.00 | 64 | 1012.9 |
| 20260504040559 | 8 | 167 | 0.0 | 0.0 | 0.00 | 0.00 | 0.00 | 64 | 1012.9 |
| 20260504040016 | 8 | 167 | 0.0 | 0.0 | 0.00 | 0.00 | 0.00 | 63 | 1012.9 |